AJ5TT Weather Reports


Display with metric or nautical units.
time (UTC)temp
F
wind
direction
speed
MPH
gust
MPH
rain 1hr
in
rain 24hr
in
rain mn
in
humidity
%
barometer
mb
20260905001602 87 206 1.0 5.0 0.00 0.00 0.00 73 1013.3
20260905000059 88 163 3.0 7.0 0.00 0.00 0.00 72 1013.2
20260904234606 89 167 2.0 5.0 0.00 0.00 0.00 70 1013.1
20260904233108 90 221 1.0 3.0 0.00 0.00 0.00 69 1013.1
20260904231604 91 266 1.0 4.0 0.00 0.00 0.00 68 1013.2
20260904230109 91 171 2.0 6.0 0.00 0.00 0.00 67 1013.1
20260904224605 91 223 1.0 3.0 0.00 0.00 0.00 67 1013.2
20260904223059 91 335 1.0 6.0 0.00 0.00 0.00 66 1013.2
20260904221605 92 215 2.0 5.0 0.00 0.00 0.00 63 1013.2
20260904220116 93 248 2.0 7.0 0.00 0.00 0.00 64 1013.0
20260904214605 93 238 2.0 6.0 0.00 0.00 0.00 62 1013.2
20260904213113 93 126 1.0 4.0 0.00 0.00 0.00 62 1013.3
20260904211614 93 118 2.0 5.0 0.00 0.00 0.00 63 1013.6
20260904210110 92 263 2.0 6.0 0.00 0.00 0.00 65 1013.6
20260904204611 90 253 2.0 8.0 0.00 0.00 0.00 64 1013.9
20260904203106 92 119 2.0 11.0 0.00 0.00 0.00 64 1013.9
20260904201625 94 70 1.0 9.0 0.00 0.00 0.00 58 1014.1
20260904194620 90 48 4.0 11.0 0.00 0.00 0.00 61 1014.2
20260904193111 92 12 2.0 13.0 0.00 0.00 0.00 63 1014.4
20260904191602 91 13 4.0 11.0 0.00 0.00 0.00 64 1014.7
20260904190111 90 234 3.0 5.0 0.00 0.00 0.00 68 1014.9
20260904184603 90 192 2.0 5.0 0.00 0.00 0.00 68 1015.1
20260904183120 89 224 4.0 7.0 0.00 0.00 0.00 73 1015.0
20260904181604 87 225 4.0 8.0 0.00 0.00 0.00 73 1015.4
20260904180124 85 225 3.0 9.0 0.00 0.00 0.00 75 1015.7
20260904174610 86 240 4.0 10.0 0.00 0.00 0.00 76 1015.8
20260904173107 89 274 0.0 3.0 0.00 0.00 0.00 71 1015.7
20260904171603 89 113 0.0 3.0 0.00 0.00 0.00 77 1015.8
20260904170057 87 23 0.0 3.0 0.00 0.00 0.00 78 1016.0
20260904164608 85 72 0.0 2.0 0.00 0.00 0.00 83 1016.1
20260904163100 83 41 0.0 2.0 0.00 0.00 0.00 82 1016.1
20260904161627 83 0 0.0 3.0 0.00 0.00 0.00 81 1016.1
20260904160107 83 61 1.0 4.0 0.00 0.00 0.00 82 1015.8
20260904154605 83 333 0.0 2.0 0.00 0.00 0.00 83 1015.8
20260904153104 83 22 2.0 3.0 0.00 0.00 0.00 85 1015.8
20260904151602 84 46 0.0 4.0 0.00 0.00 0.00 86 1015.5
20260904150100 84 39 1.0 2.0 0.00 0.00 0.00 86 1015.3
20260904144609 83 70 0.0 3.0 0.00 0.00 0.00 86 1015.3
20260904143103 82 52 0.0 2.0 0.00 0.00 0.00 88 1015.2
20260904141602 81 0 0.0 2.0 0.00 0.00 0.00 91 1015.1
20260904134606 80 0 0.0 2.0 0.00 0.00 0.00 93 1015.0
20260904133121 80 0 0.0 0.0 0.00 0.00 0.00 93 1015.0
20260904131606 80 0 0.0 0.0 0.00 0.00 0.00 93 1014.8
20260904130059 79 0 0.0 0.0 0.00 0.00 0.00 93 1014.7
20260904124611 79 0 0.0 0.0 0.00 0.00 0.00 93 1014.6
20260904123104 79 0 0.0 0.0 0.00 0.00 0.00 94 1014.2
20260904121604 78 0 0.0 0.0 0.00 0.00 0.00 93 1014.0
20260904120107 78 0 0.0 0.0 0.00 0.00 0.00 93 1014.0
20260904114608 78 0 0.0 0.0 0.00 0.00 0.00 93 1013.9
20260904113105 78 0 0.0 0.0 0.00 0.00 0.00 93 1014.0
20260904111606 78 0 0.0 0.0 0.00 0.00 0.00 93 1014.1
20260904110104 78 0 0.0 0.0 0.00 0.00 0.00 92 1014.0
20260904104559 79 0 0.0 0.0 0.00 0.00 0.00 92 1013.9
20260904103103 79 0 0.0 0.0 0.00 0.00 0.00 92 1013.9
20260904101609 79 0 0.0 0.0 0.00 0.00 0.00 92 1013.7
20260904094608 79 0 0.0 0.0 0.00 0.00 0.00 92 1013.5
20260904093106 79 0 0.0 0.0 0.00 0.00 0.00 92 1013.4
20260904091601 79 0 0.0 0.0 0.00 0.00 0.00 92 1013.3
20260904090056 79 0 0.0 0.0 0.00 0.00 0.00 92 1013.4
20260904084605 79 0 0.0 0.0 0.00 0.00 0.00 91 1013.3
20260904083110 79 0 0.0 0.0 0.00 0.00 0.00 90 1013.3
20260904081555 80 0 0.0 0.0 0.00 0.00 0.00 90 1013.3
20260904080104 80 0 0.0 0.0 0.00 0.00 0.00 89 1013.4
20260904074604 80 0 0.0 0.0 0.00 0.00 0.00 88 1013.5
20260904073105 81 0 0.0 0.0 0.00 0.00 0.00 88 1013.6
20260904071606 81 0 0.0 0.0 0.00 0.00 0.00 87 1013.5
20260904070109 82 0 0.0 3.0 0.00 0.00 0.00 86 1013.6
20260904064623 82 180 0.0 4.0 0.00 0.00 0.00 86 1013.7
20260904063110 82 186 0.0 2.0 0.00 0.00 0.00 86 1013.6
20260904061605 82 182 0.0 2.0 0.00 0.00 0.00 86 1013.7
20260904060123 82 0 0.0 3.0 0.00 0.00 0.00 87 1013.7
20260904054606 82 176 0.0 3.0 0.00 0.00 0.00 87 1013.8
20260904053102 81 0 0.0 0.0 0.00 0.00 0.00 88 1013.9
20260904051609 82 0 0.0 0.0 0.00 0.00 0.00 88 1013.8
20260904044606 82 0 0.0 0.0 0.00 0.00 0.00 87 1013.8
20260904043112 82 0 0.0 2.0 0.00 0.00 0.00 87 1013.7
20260904041601 82 177 0.0 2.0 0.00 0.00 0.00 87 1013.7
20260904040109 82 186 0.0 2.0 0.00 0.00 0.00 86 1013.8
20260904034603 82 0 0.0 2.0 0.00 0.00 0.00 86 1013.9
20260904033101 82 0 0.0 2.0 0.00 0.00 0.00 85 1013.8
20260904031610 82 0 0.0 0.0 0.00 0.00 0.00 85 1014.0
20260904030104 82 0 0.0 0.0 0.00 0.00 0.00 86 1014.1
20260904024609 82 0 0.0 0.0 0.00 0.00 0.00 86 1013.9
20260904023101 82 0 0.0 0.0 0.00 0.00 0.00 85 1013.9
20260904021608 83 0 0.0 2.0 0.00 0.00 0.00 85 1013.7
20260904020106 83 0 0.0 2.0 0.00 0.00 0.00 84 1013.6
20260904014602 83 0 0.0 2.0 0.00 0.00 0.00 84 1013.4
20260904013126 83 0 0.0 2.0 0.00 0.00 0.00 84 1013.2
20260904011606 83 0 0.0 2.0 0.00 0.00 0.00 84 1013.1
20260904004558 84 0 0.0 2.0 0.00 0.00 0.00 82 1013.1
20260904003105 84 0 0.0 2.0 0.00 0.00 0.00 81 1013.0